DW5051 Weather Reports


Display with metric or nautical units.
time (UTC)temp
F
wind
direction
speed
MPH
gust
MPH
rain 1hr
in
rain 24hr
in
rain mn
in
humidity
%
barometer
mb
20190321193218 44 120 6.0 13.0 0.00 0.00 0.00 71 1019.2
20190321192318 44 125 6.0 15.0 0.00 0.00 0.00 71 1019.2
20190321191418 44 109 7.0 15.0 0.00 0.00 0.00 71 1019.5
20190321190518 44 120 6.0 12.0 0.00 0.00 0.00 70 1019.7
20190321185618 44 117 8.0 17.0 0.00 0.00 0.00 70 1019.8
20190321184718 44 113 7.0 18.0 0.00 0.00 0.00 68 1019.8
20190321183818 45 122 8.0 21.0 0.00 0.00 0.00 67 1019.5
20190321182918 45 127 8.0 21.0 0.00 0.00 0.00 66 1019.8
20190321182018 45 123 8.0 19.0 0.00 0.00 0.00 66 1019.5
20190321181118 45 117 9.0 19.0 0.00 0.00 0.00 65 1019.6
20190321180218 45 132 8.0 16.0 0.00 0.00 0.00 64 1019.8
20190321175318 45 116 8.0 17.0 0.00 0.00 0.00 62 1020.0
20190321174417 46 110 8.0 21.0 0.00 0.00 0.00 59 1020.1
20190321173518 46 121 7.0 17.0 0.00 0.00 0.00 56 1020.4
20190321172618 46 124 8.0 17.0 0.00 0.00 0.00 54 1020.6
20190321171718 45 114 10.0 20.0 0.00 0.00 0.00 51 1020.7
20190321170818 45 126 9.0 20.0 0.00 0.00 0.00 52 1020.8
20190321165918 45 137 8.0 21.0 0.00 0.00 0.00 53 1020.9
20190321165018 46 138 7.0 21.0 0.00 0.00 0.00 53 1021.0
20190321164118 46 139 8.0 22.0 0.00 0.00 0.00 51 1021.0
20190321163218 46 133 6.0 22.0 0.00 0.00 0.00 50 1021.2
20190321162317 45 125 10.0 18.0 0.00 0.00 0.00 52 1021.4
20190321161417 46 116 9.0 23.0 0.00 0.00 0.00 51 1021.7
20190321160518 46 119 8.0 18.0 0.00 0.00 0.00 52 1021.9
20190321155618 46 119 8.0 20.0 0.00 0.00 0.00 54 1022.0
20190321154718 46 122 8.0 16.0 0.00 0.00 0.00 57 1022.1
20190321153818 45 119 9.0 21.0 0.00 0.00 0.00 59 1022.1
20190321152918 45 124 8.0 19.0 0.00 0.00 0.00 62 1022.2
20190321152017 45 124 8.0 16.0 0.00 0.00 0.00 64 1022.3
20190321151117 45 136 7.0 19.0 0.00 0.00 0.00 65 1022.4
20190321150218 44 127 8.0 15.0 0.00 0.00 0.00 66 1022.6
20190321145318 44 120 6.0 18.0 0.00 0.00 0.00 66 1022.7
20190321144417 45 124 8.0 18.0 0.00 0.00 0.00 68 1022.9
20190321143518 45 110 7.0 18.0 0.00 0.00 0.00 68 1023.0
20190321142618 44 130 7.0 17.0 0.00 0.00 0.00 69 1023.0
20190321141718 45 128 7.0 16.0 0.00 0.00 0.00 69 1023.0
20190321140817 44 115 8.0 18.0 0.00 0.00 0.00 68 1023.1
20190321135918 44 113 8.0 20.0 0.00 0.00 0.00 68 1023.0
20190321135017 45 125 6.0 13.0 0.00 0.00 0.00 67 1023.3
20190321134118 45 125 6.0 15.0 0.00 0.00 0.00 68 1023.4
20190321133218 44 130 7.0 16.0 0.00 0.00 0.00 68 1023.4
20190321132318 44 127 7.0 16.0 0.00 0.00 0.00 69 1023.2
20190321131418 44 118 6.0 15.0 0.00 0.00 0.00 69 1023.4
20190321130517 43 125 6.0 15.0 0.00 0.00 0.00 69 1023.4
20190321125617 43 124 6.0 16.0 0.00 0.00 0.00 68 1023.3
20190321124717 43 121 6.0 13.0 0.00 0.00 0.00 67 1023.5
20190321123817 42 121 6.0 11.0 0.00 0.00 0.00 67 1023.6
20190321122918 42 120 6.0 14.0 0.00 0.00 0.00 67 1023.7
20190321122017 42 121 5.0 13.0 0.00 0.00 0.00 67 1023.8
20190321121117 41 132 4.0 11.0 0.00 0.00 0.00 67 1023.9
20190321120218 40 145 4.0 8.0 0.00 0.00 0.00 70 1024.2
20190321115317 39 133 3.0 11.0 0.00 0.00 0.00 74 1024.4
20190321114417 39 129 2.0 7.0 0.00 0.00 0.00 77 1024.5
20190321113518 38 117 2.0 6.0 0.00 0.00 0.00 79 1024.6
20190321112618 37 136 2.0 5.0 0.00 0.00 0.00 81 1024.6
20190321111717 36 144 1.0 6.0 0.00 0.00 0.00 82 1024.8
20190321110817 36 134 1.0 6.0 0.00 0.00 0.00 82 1024.7
20190321105917 35 121 1.0 6.0 0.00 0.00 0.00 82 1024.7
20190321105017 35 122 1.0 4.0 0.00 0.00 0.00 82 1024.8
20190321104117 35 155 1.0 5.0 0.00 0.00 0.00 81 1024.9
20190321103217 36 151 2.0 5.0 0.00 0.00 0.00 81 1024.8
20190321102318 36 139 1.0 5.0 0.00 0.00 0.00 80 1024.7
20190321101418 36 140 2.0 4.0 0.00 0.00 0.00 80 1024.4
20190321100518 35 147 2.0 5.0 0.00 0.00 0.00 82 1024.2
20190321095618 35 159 1.0 5.0 0.00 0.00 0.00 82 1024.3
20190321094718 35 159 1.0 5.0 0.00 0.00 0.00 83 1024.4
20190321093817 35 164 0.0 4.0 0.00 0.00 0.00 82 1024.4
20190321092917 35 164 1.0 4.0 0.00 0.00 0.00 82 1024.5
20190321092018 35 165 1.0 6.0 0.00 0.00 0.00 82 1024.6
20190321091118 34 170 0.0 2.0 0.00 0.00 0.00 82 1024.8
20190321090218 35 171 1.0 5.0 0.00 0.00 0.00 82 1024.9
20190321085317 35 172 1.0 5.0 0.00 0.00 0.00 82 1025.0
20190321084417 35 190 1.0 5.0 0.00 0.00 0.00 81 1025.0
20190321083518 35 193 1.0 3.0 0.00 0.00 0.00 80 1025.1
20190321082618 36 187 1.0 4.0 0.00 0.00 0.00 80 1025.1
20190321081717 36 169 2.0 5.0 0.00 0.00 0.00 80 1025.1
20190321080818 36 174 3.0 6.0 0.00 0.00 0.00 80 1025.2
20190321075917 36 182 3.0 6.0 0.00 0.00 0.00 79 1025.2
20190321075017 36 171 2.0 7.0 0.00 0.00 0.00 79 1025.3
20190321074117 36 171 2.0 5.0 0.00 0.00 0.00 79 1025.4
20190321073217 36 184 2.0 6.0 0.00 0.00 0.00 79 1025.3
20190321072317 36 188 2.0 6.0 0.00 0.00 0.00 79 1025.5
20190321071418 35 195 2.0 4.0 0.00 0.00 0.00 79 1025.6
20190321070517 35 196 2.0 4.0 0.00 0.00 0.00 79 1025.7
20190321065618 35 196 1.0 3.0 0.00 0.00 0.00 80 1025.8
20190321064717 35 196 1.0 2.0 0.00 0.00 0.00 78 1025.9
20190321063817 35 196 1.0 4.0 0.00 0.00 0.00 78 1025.9
20190321062917 36 196 2.0 4.0 0.00 0.00 0.00 76 1025.9
20190321062018 36 196 1.0 4.0 0.00 0.00 0.00 76 1026.0
20190321061118 36 200 2.0 4.0 0.00 0.00 0.00 76 1026.0
20190321060217 36 201 2.0 4.0 0.00 0.00 0.00 76 1026.1
20190321055317 37 193 2.0 5.0 0.00 0.00 0.00 76 1026.2
20190321054417 37 156 1.0 5.0 0.00 0.00 0.00 75 1026.3
20190321053517 37 155 1.0 5.0 0.00 0.00 0.00 75 1026.4
20190321052617 37 156 2.0 6.0 0.00 0.00 0.00 75 1026.4
20190321051717 38 183 3.0 7.0 0.00 0.00 0.00 75 1026.4
20190321050818 38 201 2.0 8.0 0.00 0.00 0.00 76 1026.4
20190321045917 38 205 3.0 6.0 0.00 0.00 0.00 76 1026.5
20190321045018 38 198 3.0 7.0 0.00 0.00 0.00 76 1026.5
20190321044117 38 201 4.0 9.0 0.00 0.00 0.00 76 1026.5
20190321043217 38 196 2.0 9.0 0.00 0.00 0.00 77 1026.6
20190321042317 38 208 3.0 6.0 0.00 0.00 0.00 76 1026.7
20190321041418 38 189 4.0 9.0 0.00 0.00 0.00 76 1026.7
20190321040518 38 190 3.0 10.0 0.00 0.00 0.00 76 1026.7
20190321035617 38 200 4.0 9.0 0.00 0.00 0.00 76 1026.8
20190321034717 38 192 4.0 9.0 0.00 0.00 0.00 75 1026.8
20190321033817 38 200 4.0 10.0 0.00 0.00 0.00 75 1026.8
20190321032917 38 196 4.0 11.0 0.00 0.00 0.00 75 1026.8
20190321032018 38 196 4.0 10.0 0.00 0.00 0.00 75 1026.8
20190321031117 38 195 4.0 11.0 0.00 0.00 0.00 75 1026.8
20190321030217 38 198 4.0 11.0 0.00 0.00 0.00 75 1026.8
20190321025318 38 197 4.0 8.0 0.00 0.00 0.00 75 1026.9
20190321024417 38 200 4.0 10.0 0.00 0.00 0.00 76 1026.9
20190321023517 38 197 4.0 10.0 0.00 0.00 0.00 76 1027.0
20190321022617 38 198 4.0 9.0 0.00 0.00 0.00 75 1027.0
20190321021718 38 198 5.0 11.0 0.00 0.00 0.00 75 1027.0
20190321020818 38 190 3.0 9.0 0.00 0.00 0.00 76 1027.0
20190321015918 38 189 4.0 9.0 0.00 0.00 0.00 75 1027.1
20190321015017 38 181 4.0 12.0 0.00 0.00 0.00 75 1027.2
20190321014117 38 200 4.0 11.0 0.00 0.00 0.00 75 1027.1
20190321013217 38 204 4.0 9.0 0.00 0.00 0.00 75 1027.2
20190321012317 38 191 4.0 9.0 0.00 0.00 0.00 74 1027.2
20190321011418 38 199 4.0 13.0 0.00 0.00 0.00 74 1027.2
20190321010517 38 193 4.0 9.0 0.00 0.00 0.00 73 1027.2
20190321005617 38 188 4.0 11.0 0.00 0.00 0.00 72 1027.2
20190321004717 38 204 4.0 10.0 0.00 0.00 0.00 71 1027.2
20190321003818 38 189 4.0 10.0 0.00 0.00 0.00 70 1027.2
20190321002917 38 208 4.0 8.0 0.00 0.00 0.00 70 1027.2
20190321002017 39 196 5.0 11.0 0.00 0.00 0.00 69 1027.1
20190321001117 39 182 4.0 13.0 0.00 0.00 0.00 69 1027.0
20190321000217 39 197 5.0 11.0 0.00 0.00 0.00 69 1027.0
20190320235317 39 208 5.0 10.0 0.00 0.00 0.00 68 1026.9
20190320234417 39 199 5.0 14.0 0.00 0.00 0.00 69 1026.8
20190320233517 39 190 5.0 11.0 0.00 0.00 0.00 68 1026.8
20190320232617 39 196 4.0 9.0 0.00 0.00 0.00 68 1026.8
20190320231717 39 199 4.0 9.0 0.00 0.00 0.00 66 1026.7
20190320230817 39 199 4.0 11.0 0.00 0.00 0.00 65 1026.8
20190320225917 39 195 5.0 12.0 0.00 0.00 0.00 65 1026.7
20190320225017 40 195 5.0 12.0 0.00 0.00 0.00 63 1026.6
20190320224117 40 193 5.0 15.0 0.00 0.00 0.00 62 1026.7
20190320223217 40 193 5.0 11.0 0.00 0.00 0.00 60 1026.7
20190320222317 41 203 5.0 14.0 0.00 0.00 0.00 58 1026.8
20190320221417 41 193 6.0 15.0 0.00 0.00 0.00 59 1026.8
20190320220517 41 193 5.0 11.0 0.00 0.00 0.00 54 1026.8
20190320215617 42 194 6.0 15.0 0.00 0.00 0.00 52 1026.8
20190320214717 42 194 5.0 14.0 0.00 0.00 0.00 45 1026.9
20190320213817 42 198 6.0 16.0 0.00 0.00 0.00 44 1026.9
20190320212917 42 188 6.0 12.0 0.00 0.00 0.00 45 1027.0
20190320212017 42 192 6.0 14.0 0.00 0.00 0.00 48 1027.0
20190320211117 43 205 6.0 14.0 0.00 0.00 0.00 43 1027.1
20190320210217 43 208 6.0 14.0 0.00 0.00 0.00 43 1027.1
20190320205318 43 196 7.0 17.0 0.00 0.00 0.00 44 1027.1
20190320204417 43 182 6.0 15.0 0.00 0.00 0.00 40 1027.1
20190320203517 43 184 7.0 16.0 0.00 0.00 0.00 45 1027.2
20190320202617 43 210 8.0 14.0 0.00 0.00 0.00 43 1027.2
20190320201717 43 189 7.0 17.0 0.00 0.00 0.00 40 1027.2
20190320200817 44 205 7.0 17.0 0.00 0.00 0.00 40 1027.2
20190320195917 44 204 6.0 14.0 0.00 0.00 0.00 42 1027.2
20190320195017 44 197 7.0 19.0 0.00 0.00 0.00 43 1027.3
20190320194117 45 196 6.0 15.0 0.00 0.00 0.00 46 1027.4